QPF
0.00 0.00 0.00 0.01 0.01 0.01 0.01 0.01 0.01 0.01 0.00 0.00 0.01 0.01 0.01 0.01 0.01 0.02 0.04 0.04 0.02 0.01 0.01 0.02 0.02 0.03 0.04 0.05 0.05 0.07 0.10 0.10 0.09 0.08 0.07 0.05 0.05 0.07 0.06 0.07 0.06 0.06 0.05 0.04
0.00 0.00 0.00 0.01 0.01 0.00 0.01 0.01 0.01 0.01 0.01 0.00 0.01 0.01 0.01 0.00 0.01 0.01 0.02 0.02 0.01 0.01 0.01 0.01 0.01 0.02 0.03 0.05 0.05 0.06 0.07 0.07 0.07 0.05 0.04 0.03 0.04 0.06 0.06 0.06 0.05 0.05 0.04 0.04
0.00 0.00 0.01 0.01 0.01 0.01 0.02 0.01 0.01 0.02 0.01 0.01 0.01 0.01 0.01 0.01 0.01 0.01 0.01 0.01 0.01 0.02 0.02 0.01 0.01 0.01 0.03 0.05 0.05 0.07 0.07 0.06 0.04 0.03 0.03 0.02 0.02 0.05 0.06 0.06 0.06 0.06 0.05 0.04
0.01 0.00 0.01 0.01 0.01 0.01 0.02 0.02 0.02 0.02 0.01 0.01 0.01 0.01 0.00 0.01 0.02 0.01 0.01 0.01 0.01 0.02 0.02 0.01 0.01 0.01 0.02 0.04 0.04 0.06 0.07 0.05 0.04 0.04 0.03 0.02 0.02 0.04 0.05 0.05 0.05 0.06 0.05 0.05
0.02 0.01 0.01 0.00 0.00 0.00 0.02 0.02 0.01 0.01 0.01 0.01 0.00 0.00 0.00 0.01 0.01 0.01 0.01 0.00 0.01 0.01 0.01 0.01 0.02 0.01 0.02 0.03 0.04 0.05 0.07 0.06 0.05 0.04 0.04 0.03 0.03 0.04 0.06 0.05 0.04 0.05 0.04 0.05
0.02 0.02 0.01 0.00 0.00 0.00 0.01 0.01 0.01 0.01 0.01 0.01 0.01 0.01 0.01 0.00 0.01 0.01 0.00 0.00 0.00 0.01 0.01 0.02 0.02 0.02 0.02 0.03 0.03 0.04 0.05 0.05 0.04 0.04 0.04 0.03 0.03 0.04 0.06 0.05 0.04 0.04 0.04 0.04
0.01 0.01 0.00 0.00 0.00 0.00 0.01 0.01 0.00 0.01 0.01 0.01 0.01 0.01 0.01 0.01 0.01 0.01 0.00 0.00 0.01 0.01 0.01 0.02 0.02 0.02 0.03 0.04 0.04 0.04 0.04 0.04 0.04 0.04 0.03 0.03 0.02 0.03 0.05 0.04 0.03 0.04 0.03 0.03
0.01 0.02 0.01 0.00 0.00 0.01 0.01 0.00 0.00 0.00 0.01 0.01 0.01 0.01 0.01 0.01 0.01 0.01 0.00 0.00 0.01 0.01 0.01 0.02 0.03 0.04 0.04 0.04 0.04 0.03 0.04 0.04 0.04 0.04 0.03 0.02 0.02 0.03 0.04 0.03 0.03 0.04 0.04 0.03
0.01 0.00 0.00 0.00 0.00 0.01 0.01 0.01 0.00 0.00 0.00 0.01 0.01 0.01 0.01 0.01 0.01 0.01 0.01 0.00 0.01 0.01 0.01 0.02 0.04 0.04 0.04 0.04 0.03 0.03 0.04 0.04 0.04 0.03 0.03 0.02 0.01 0.02 0.04 0.04 0.03 0.04 0.03 0.03
0.01 0.00 0.00 0.00 0.00 0.00 0.01 0.01 0.00 0.00 0.00 0.00 0.01 0.01 0.01 0.01 0.01 0.01 0.01 0.00 0.01 0.01 0.01 0.02 0.03 0.04 0.04 0.03 0.03 0.03 0.03 0.03 0.04 0.03 0.03 0.02 0.02 0.02 0.03 0.04 0.02 0.03 0.02 0.02
0.01 0.00 0.00 0.00 0.00 0.01 0.01 0.00 0.00 0.00 0.00 0.00 0.01 0.01 0.01 0.01 0.00 0.00 0.00 0.00 0.01 0.01 0.01 0.02 0.02 0.03 0.04 0.03 0.03 0.03 0.03 0.03 0.03 0.03 0.03 0.03 0.03 0.02 0.03 0.04 0.02 0.02 0.02 0.01
0.01 0.00 0.01 0.01 0.00 0.00 0.00 0.00 0.00 0.01 0.01 0.01 0.01 0.02 0.01 0.01 0.01 0.01 0.01 0.01 0.01 0.01 0.01 0.01 0.02 0.02 0.03 0.03 0.03 0.03 0.03 0.03 0.03 0.03 0.03 0.03 0.02 0.03 0.03 0.04 0.03 0.02 0.03 0.02
0.01 0.01 0.01 0.00 0.00 0.00 0.00 0.00 0.00 0.01 0.01 0.01 0.01 0.01 0.01 0.01 0.01 0.01 0.01 0.01 0.01 0.01 0.01 0.01 0.01 0.01 0.02 0.03 0.03 0.03 0.03 0.03 0.03 0.03 0.03 0.02 0.01 0.01 0.02 0.02 0.02 0.02 0.02 0.01
0.00 0.01 0.01 0.00 0.00 0.00 0.00 0.00 0.00 0.01 0.01 0.01 0.01 0.01 0.01 0.00 0.00 0.00 0.01 0.01 0.01 0.01 0.01 0.01 0.01 0.01 0.01 0.02 0.02 0.02 0.03 0.03 0.03 0.03 0.02 0.02 0.01 0.01 0.01 0.01 0.01 0.01 0.01 0.01
0.00 0.01 0.01 0.01 0.00 0.00 0.01 0.01 0.00 0.00 0.01 0.01 0.00 0.01 0.01 0.01 0.00 0.00 0.01 0.01 0.01 0.01 0.01 0.01 0.01 0.01 0.01 0.01 0.01 0.02 0.02 0.03 0.03 0.03 0.03 0.02 0.01 0.01 0.01 0.01 0.01 0.01 0.01 0.01
0.00 0.00 0.00 0.01 0.00 0.00 0.00 0.00 0.00 0.00 0.00 0.01 0.00 0.00 0.01 0.01 0.01 0.01 0.01 0.01 0.01 0.01 0.01 0.01 0.01 0.01 0.01 0.01 0.01 0.02 0.02 0.03 0.03 0.03 0.02 0.02 0.02 0.01 0.01 0.01 0.01 0.01 0.01 0.01
0.00 0.00 0.00 0.00 0.00 0.00 0.00 0.00 0.01 0.01 0.01 0.01 0.00 0.00 0.01 0.01 0.01 0.01 0.01 0.01 0.01 0.01 0.01 0.01 0.01 0.01 0.01 0.02 0.02 0.02 0.02 0.02 0.02 0.02 0.02 0.02 0.01 0.01 0.01 0.01 0.01 0.01 0.01 0.01
0.00 0.00 0.00 0.00 0.00 0.00 0.00 0.00 0.00 0.00 0.01 0.01 0.01 0.01 0.01 0.01 0.01 0.01 0.01 0.02 0.02 0.02 0.02 0.01 0.01 0.01 0.01 0.02 0.01 0.01 0.01 0.01 0.02 0.01 0.01 0.01 0.01 0.01 0.01 0.01 0.01 0.01 0.01 0.01
0.00 0.00 0.00 0.00 0.00 0.00 0.00 0.00 0.00 0.00 0.00 0.01 0.01 0.01 0.01 0.01 0.01 0.02 0.02 0.02 0.02 0.02 0.02 0.01 0.01 0.01 0.01 0.01 0.01 0.01 0.01 0.01 0.01 0.01 0.01 0.01 0.01 0.02 0.01 0.01 0.01 0.01 0.01 0.01
0.00 0.00 0.00 0.00 0.00 0.00 0.00 0.00 0.00 0.00 0.00 0.01 0.01 0.01 0.01 0.01 0.01 0.02 0.02 0.02 0.02 0.02 0.02 0.02 0.01 0.01 0.01 0.01 0.01 0.01 0.01 0.01 0.01 0.01 0.01 0.01 0.01 0.01 0.02 0.01 0.01 0.01 0.01 0.01
0.00 0.00 0.00 0.00 0.00 0.00 0.00 0.00 0.00 0.00 0.00 0.01 0.01 0.01 0.01 0.01 0.01 0.01 0.01 0.02 0.02 0.02 0.02 0.02 0.01 0.01 0.01 0.01 0.01 0.01 0.01 0.01 0.01 0.01 0.01 0.01 0.02 0.01 0.01 0.01 0.02 0.01 0.01 0.01
0.00 0.00 0.00 0.00 0.00 0.00 0.00 0.00 0.00 0.00 0.00 0.01 0.01 0.01 0.01 0.01 0.01 0.01 0.01 0.01 0.02 0.01 0.01 0.01 0.01 0.01 0.01 0.01 0.01 0.01 0.01 0.01 0.01 0.01 0.01 0.01 0.02 0.02 0.02 0.01 0.01 0.01 0.01 0.01
0.00 0.00 0.00 0.00 0.00 0.00 0.00 0.00 0.00 0.00 0.00 0.01 0.01 0.01 0.01 0.01 0.01 0.01 0.01 0.01 0.01 0.01 0.01 0.01 0.01 0.01 0.01 0.01 0.01 0.01 0.01 0.01 0.01 0.01 0.01 0.02 0.02 0.02 0.02 0.02 0.02 0.01 0.01 0.01
0.01 0.01 0.01 0.01 0.00 0.00 0.00 0.00 0.00 0.00 0.00 0.00 0.00 0.00 0.01 0.01 0.01 0.01 0.01 0.01 0.01 0.01 0.01 0.01 0.02 0.01 0.02 0.01 0.01 0.01 0.01 0.01 0.01 0.01 0.01 0.01 0.02 0.02 0.01 0.01 0.01 0.01 0.01 0.01
0.01 0.01 0.00 0.00 0.00 0.00 0.00 0.00 0.00 0.00 0.00 0.00 0.00 0.00 0.01 0.01 0.01 0.01 0.01 0.01 0.01 0.01 0.01 0.01 0.01 0.01 0.01 0.01 0.01 0.01 0.01 0.01 0.01 0.01 0.01 0.01 0.01 0.01 0.01 0.01 0.01 0.01 0.01 0.01
0.00 0.00 0.00 0.00 0.00 0.00 0.00 0.00 0.00 0.00 0.00 0.00 0.00 0.00 0.01 0.01 0.01 0.01 0.01 0.01 0.01 0.01 0.01 0.01 0.01 0.01 0.01 0.01 0.01 0.01 0.01 0.01 0.01 0.01 0.01 0.01 0.01 0.01 0.01 0.01 0.01 0.01 0.01 0.01
0.00 0.00 0.00 0.00 0.00 0.00 0.00 0.00 0.00 0.00 0.00 0.00 0.00 0.00 0.00 0.00 0.00 0.00 0.00 0.00 0.00 0.00 0.01 0.01 0.01 0.01 0.01 0.01 0.01 0.01 0.01 0.01 0.01 0.01 0.01 0.01 0.01 0.01 0.01 0.01 0.01 0.01 0.01 0.01
MSLP
1030.85 1031.20 1031.48 1031.59 1031.49 1031.11 1030.44 1029.50 1028.32 1026.98 1025.55 1024.12 1022.76 1021.54 1020.45 1019.50 1018.63 1017.78 1016.89 1015.87 1014.68 1013.31 1011.75 1010.05 1008.28 1006.53 1004.88 1003.42 1002.23 1001.35 1000.81 1000.61 1000.74 1001.16 1001.83 1002.69 1003.68 1004.76 1005.88 1007.01 1008.13 1009.21 1010.26 1011.29
1031.69 1031.92 1032.02 1031.95 1031.64 1031.09 1030.29 1029.26 1028.07 1026.77 1025.43 1024.13 1022.92 1021.83 1020.84 1019.94 1019.08 1018.18 1017.18 1016.04 1014.71 1013.19 1011.52 1009.74 1007.94 1006.19 1004.58 1003.21 1002.12 1001.36 1000.94 1000.85 1001.08 1001.57 1002.29 1003.18 1004.19 1005.26 1006.37 1007.48 1008.57 1009.64 1010.68 1011.70
1032.66 1032.74 1032.65 1032.38 1031.88 1031.16 1030.24 1029.15 1027.96 1026.71 1025.47 1024.29 1023.20 1022.21 1021.30 1020.41 1019.51 1018.52 1017.39 1016.09 1014.60 1012.94 1011.15 1009.30 1007.46 1005.73 1004.19 1002.91 1001.94 1001.31 1001.03 1001.07 1001.41 1002.00 1002.79 1003.73 1004.76 1005.85 1006.96 1008.06 1009.15 1010.20 1011.24 1012.26
1033.67 1033.59 1033.34 1032.88 1032.22 1031.36 1030.35 1029.23 1028.04 1026.85 1025.70 1024.62 1023.62 1022.69 1021.80 1020.89 1019.90 1018.80 1017.52 1016.05 1014.39 1012.58 1010.68 1008.76 1006.91 1005.21 1003.74 1002.57 1001.74 1001.26 1001.12 1001.30 1001.76 1002.45 1003.32 1004.31 1005.39 1006.50 1007.62 1008.73 1009.82 1010.87 1011.90 1012.92
1034.59 1034.37 1033.97 1033.37 1032.59 1031.65 1030.59 1029.45 1028.30 1027.17 1026.09 1025.09 1024.15 1023.24 1022.33 1021.36 1020.27 1019.02 1017.58 1015.95 1014.14 1012.21 1010.22 1008.25 1006.40 1004.75 1003.37 1002.31 1001.61 1001.27 1001.27 1001.58 1002.16 1002.95 1003.90 1004.95 1006.07 1007.22 1008.35 1009.47 1010.56 1011.61 1012.64 1013.65
1035.25 1034.93 1034.42 1033.74 1032.90 1031.93 1030.87 1029.77 1028.67 1027.61 1026.61 1025.66 1024.75 1023.84 1022.88 1021.83 1020.62 1019.24 1017.65 1015.88 1013.95 1011.93 1009.88 1007.91 1006.09 1004.51 1003.22 1002.28 1001.71 1001.49 1001.61 1002.04 1002.71 1003.58 1004.59 1005.70 1006.85 1008.01 1009.16 1010.29 1011.37 1012.42 1013.43 1014.42
1035.55 1035.16 1034.60 1033.90 1033.06 1032.12 1031.12 1030.10 1029.09 1028.12 1027.19 1026.29 1025.39 1024.46 1023.45 1022.31 1021.00 1019.50 1017.80 1015.93 1013.93 1011.86 1009.82 1007.88 1006.12 1004.62 1003.44 1002.61 1002.15 1002.05 1002.26 1002.77 1003.51 1004.43 1005.48 1006.60 1007.77 1008.94 1010.08 1011.19 1012.26 1013.29 1014.27 1015.23
1035.43 1035.01 1034.46 1033.79 1033.02 1032.17 1031.29 1030.39 1029.50 1028.63 1027.78 1026.93 1026.05 1025.10 1024.04 1022.83 1021.44 1019.86 1018.10 1016.18 1014.17 1012.12 1010.13 1008.27 1006.61 1005.21 1004.14 1003.42 1003.06 1003.03 1003.31 1003.85 1004.62 1005.55 1006.60 1007.72 1008.87 1010.02 1011.14 1012.22 1013.26 1014.25 1015.20 1016.11
1034.94 1034.53 1034.03 1033.44 1032.79 1032.09 1031.36 1030.61 1029.87 1029.12 1028.36 1027.56 1026.70 1025.74 1024.64 1023.39 1021.95 1020.34 1018.57 1016.67 1014.71 1012.74 1010.85 1009.11 1007.58 1006.31 1005.35 1004.73 1004.44 1004.46 1004.77 1005.32 1006.08 1006.98 1007.99 1009.07 1010.17 1011.28 1012.35 1013.39 1014.38 1015.32 1016.22 1017.08
1034.18 1033.82 1033.40 1032.94 1032.44 1031.91 1031.36 1030.79 1030.20 1029.58 1028.91 1028.17 1027.33 1026.36 1025.25 1023.98 1022.54 1020.94 1019.21 1017.39 1015.53 1013.69 1011.95 1010.36 1008.98 1007.86 1007.01 1006.48 1006.24 1006.29 1006.59 1007.12 1007.83 1008.67 1009.62 1010.63 1011.66 1012.70 1013.71 1014.69 1015.62 1016.51 1017.35 1018.15
1033.34 1033.05 1032.74 1032.42 1032.09 1031.74 1031.37 1030.97 1030.52 1030.01 1029.42 1028.73 1027.91 1026.95 1025.84 1024.58 1023.16 1021.61 1019.97 1018.26 1016.55 1014.88 1013.32 1011.91 1010.69 1009.71 1008.98 1008.52 1008.33 1008.38 1008.66 1009.13 1009.77 1010.54 1011.40 1012.32 1013.28 1014.24 1015.19 1016.10 1016.97 1017.80 1018.58 1019.32
1032.60 1032.38 1032.19 1032.01 1031.84 1031.66 1031.45 1031.19 1030.86 1030.45 1029.91 1029.25 1028.45 1027.49 1026.38 1025.14 1023.76 1022.29 1020.76 1019.19 1017.65 1016.17 1014.80 1013.58 1012.53 1011.69 1011.06 1010.67 1010.50 1010.54 1010.78 1011.19 1011.76 1012.44 1013.22 1014.06 1014.94 1015.83 1016.71 1017.57 1018.39 1019.16 1019.88 1020.56
1032.09 1031.96 1031.87 1031.83 1031.79 1031.75 1031.67 1031.52 1031.27 1030.90 1030.39 1029.74 1028.92 1027.96 1026.85 1025.63 1024.31 1022.92 1021.50 1020.09 1018.72 1017.43 1016.25 1015.20 1014.31 1013.60 1013.07 1012.73 1012.58 1012.61 1012.81 1013.16 1013.65 1014.26 1014.96 1015.73 1016.54 1017.38 1018.22 1019.03 1019.80 1020.54 1021.21 1021.84
1031.88 1031.83 1031.85 1031.91 1031.99 1032.05 1032.05 1031.96 1031.75 1031.39 1030.87 1030.19 1029.35 1028.36 1027.25 1026.04 1024.77 1023.46 1022.16 1020.89 1019.68 1018.56 1017.55 1016.66 1015.91 1015.31 1014.86 1014.57 1014.43 1014.45 1014.61 1014.92 1015.35 1015.90 1016.55 1017.27 1018.04 1018.84 1019.65 1020.43 1021.18 1021.88 1022.52 1023.11
1031.95 1031.99 1032.10 1032.26 1032.42 1032.54 1032.58 1032.51 1032.29 1031.90 1031.34 1030.61 1029.72 1028.70 1027.57 1026.38 1025.15 1023.92 1022.71 1021.57 1020.50 1019.53 1018.67 1017.92 1017.29 1016.77 1016.39 1016.13 1016.01 1016.02 1016.16 1016.44 1016.83 1017.35 1017.96 1018.66 1019.41 1020.19 1020.98 1021.75 1022.48 1023.16 1023.78 1024.33
1032.24 1032.37 1032.56 1032.79 1033.00 1033.16 1033.20 1033.12 1032.86 1032.42 1031.80 1031.01 1030.07 1029.00 1027.86 1026.67 1025.48 1024.31 1023.20 1022.16 1021.22 1020.37 1019.63 1018.99 1018.45 1018.01 1017.68 1017.45 1017.34 1017.35 1017.49 1017.74 1018.12 1018.62 1019.22 1019.90 1020.65 1021.43 1022.21 1022.98 1023.70 1024.37 1024.96 1025.48
1032.63 1032.84 1033.11 1033.39 1033.64 1033.81 1033.85 1033.72 1033.42 1032.92 1032.23 1031.38 1030.39 1029.29 1028.14 1026.96 1025.81 1024.70 1023.67 1022.73 1021.89 1021.15 1020.50 1019.94 1019.48 1019.10 1018.81 1018.62 1018.52 1018.54 1018.67 1018.92 1019.30 1019.79 1020.39 1021.07 1021.81 1022.59 1023.37 1024.13 1024.84 1025.49 1026.06 1026.55
1032.98 1033.28 1033.62 1033.96 1034.23 1034.40 1034.42 1034.25 1033.90 1033.34 1032.60 1031.70 1030.67 1029.57 1028.42 1027.27 1026.17 1025.13 1024.18 1023.33 1022.58 1021.92 1021.36 1020.88 1020.47 1020.14 1019.89 1019.73 1019.65 1019.68 1019.81 1020.07 1020.45 1020.94 1021.54 1022.22 1022.96 1023.73 1024.50 1025.24 1025.93 1026.55 1027.09 1027.54
1033.21 1033.60 1034.01 1034.38 1034.68 1034.84 1034.84 1034.64 1034.24 1033.65 1032.87 1031.95 1030.92 1029.82 1028.71 1027.62 1026.58 1025.62 1024.76 1023.99 1023.33 1022.76 1022.27 1021.86 1021.51 1021.23 1021.02 1020.88 1020.82 1020.87 1021.01 1021.28 1021.65 1022.14 1022.73 1023.39 1024.11 1024.86 1025.60 1026.31 1026.96 1027.55 1028.04 1028.45
1033.27 1033.74 1034.21 1034.62 1034.93 1035.09 1035.06 1034.84 1034.42 1033.80 1033.02 1032.11 1031.10 1030.05 1029.00 1027.98 1027.03 1026.16 1025.40 1024.73 1024.16 1023.67 1023.26 1022.92 1022.63 1022.40 1022.22 1022.12 1022.09 1022.15 1022.30 1022.57 1022.94 1023.41 1023.97 1024.61 1025.29 1025.99 1026.69 1027.35 1027.95 1028.48 1028.92 1029.28
1033.19 1033.73 1034.23 1034.67 1034.98 1035.13 1035.09 1034.85 1034.41 1033.80 1033.03 1032.15 1031.20 1030.22 1029.26 1028.33 1027.49 1026.73 1026.07 1025.50 1025.03 1024.63 1024.30 1024.03 1023.80 1023.62 1023.50 1023.43 1023.43 1023.50 1023.67 1023.93 1024.28 1024.73 1025.26 1025.84 1026.47 1027.11 1027.74 1028.33 1028.86 1029.33 1029.72 1030.03
1033.03 1033.60 1034.13 1034.57 1034.87 1035.00 1034.94 1034.68 1034.25 1033.65 1032.92 1032.10 1031.22 1030.33 1029.46 1028.65 1027.92 1027.27 1026.72 1026.26 1025.89 1025.58 1025.34 1025.14 1024.98 1024.86 1024.78 1024.76 1024.79 1024.88 1025.05 1025.30 1025.63 1026.04 1026.52 1027.04 1027.60 1028.16 1028.71 1029.22 1029.69 1030.09 1030.42 1030.67
1032.85 1033.44 1033.97 1034.39 1034.66 1034.76 1034.67 1034.41 1033.98 1033.41 1032.72 1031.97 1031.17 1030.38 1029.62 1028.93 1028.31 1027.78 1027.33 1026.98 1026.70 1026.48 1026.32 1026.19 1026.10 1026.04 1026.02 1026.03 1026.09 1026.21 1026.38 1026.62 1026.92 1027.28 1027.70 1028.16 1028.63 1029.11 1029.58 1030.01 1030.40 1030.74 1031.01 1031.22
1032.73 1033.31 1033.81 1034.18 1034.41 1034.47 1034.36 1034.08 1033.66 1033.12 1032.49 1031.80 1031.09 1030.40 1029.75 1029.16 1028.65 1028.23 1027.89 1027.63 1027.43 1027.30 1027.21 1027.15 1027.12 1027.12 1027.15 1027.20 1027.29 1027.42 1027.59 1027.82 1028.09 1028.40 1028.76 1029.14 1029.54 1029.94 1030.33 1030.69 1031.01 1031.28 1031.51 1031.68
1032.70 1033.24 1033.68 1034.00 1034.17 1034.18 1034.04 1033.76 1033.35 1032.84 1032.26 1031.65 1031.03 1030.43 1029.88 1029.40 1028.98 1028.65 1028.40 1028.22 1028.10 1028.03 1028.00 1028.00 1028.03 1028.08 1028.15 1028.24 1028.35 1028.49 1028.67 1028.87 1029.11 1029.38 1029.68 1030.00 1030.32 1030.65 1030.96 1031.25 1031.51 1031.74 1031.93 1032.07
1032.72 1033.21 1033.59 1033.84 1033.95 1033.92 1033.75 1033.47 1033.07 1032.60 1032.09 1031.55 1031.01 1030.51 1030.05 1029.66 1029.33 1029.08 1028.90 1028.78 1028.72 1028.70 1028.72 1028.77 1028.84 1028.93 1029.03 1029.15 1029.28 1029.43 1029.60 1029.80 1030.01 1030.24 1030.48 1030.73 1030.99 1031.25 1031.50 1031.73 1031.95 1032.13 1032.29 1032.42
1032.74 1033.17 1033.48 1033.67 1033.73 1033.67 1033.49 1033.21 1032.85 1032.43 1031.98 1031.52 1031.07 1030.65 1030.28 1029.97 1029.72 1029.53 1029.41 1029.34 1029.32 1029.34 1029.40 1029.48 1029.58 1029.70 1029.83 1029.97 1030.12 1030.28 1030.44 1030.62 1030.80 1031.00 1031.19 1031.40 1031.60 1031.80 1031.99 1032.17 1032.34 1032.50 1032.63 1032.74
Thickness
5453 5458 5456 5457 5457 5452 5448 5451 5451 5461 5460 5470 5466 5459 5456 5454 5453 5453 5453 5454 5454 5454 5455 5456 5457 5458 5460 5463 5465 5468 5469 5470 5470 5470 5470 5469 5470 5472 5473 5473 5473 5474 5474 5474
5451 5455 5452 5453 5455 5452 5451 5451 5450 5454 5459 5464 5457 5452 5451 5449 5449 5449 5449 5450 5449 5449 5450 5450 5450 5452 5454 5456 5458 5460 5461 5461 5461 5461 5461 5461 5462 5464 5465 5465 5465 5466 5466 5466
5442 5441 5451 5453 5456 5452 5450 5449 5450 5454 5462 5455 5451 5451 5448 5446 5445 5444 5443 5444 5443 5443 5443 5443 5443 5445 5447 5449 5451 5452 5452 5453 5453 5453 5454 5454 5455 5455 5456 5457 5457 5457 5458 5458
5425 5434 5441 5468 5459 5455 5452 5453 5449 5453 5453 5448 5448 5446 5443 5442 5439 5437 5438 5437 5437 5437 5437 5437 5438 5439 5441 5442 5443 5444 5445 5445 5446 5446 5446 5446 5447 5447 5448 5448 5449 5449 5450 5451
5413 5419 5437 5455 5454 5447 5446 5451 5451 5448 5447 5441 5437 5438 5441 5440 5435 5433 5433 5432 5431 5431 5431 5431 5432 5433 5434 5436 5437 5437 5438 5438 5438 5438 5439 5439 5439 5440 5440 5441 5441 5441 5442 5442
5405 5418 5435 5459 5451 5444 5444 5444 5450 5443 5440 5435 5433 5435 5442 5438 5431 5428 5427 5426 5425 5425 5425 5426 5426 5427 5429 5429 5429 5430 5431 5431 5431 5431 5432 5432 5432 5433 5433 5433 5434 5434 5435 5435
5402 5407 5428 5445 5439 5438 5437 5446 5444 5438 5435 5430 5429 5431 5431 5428 5425 5423 5421 5420 5420 5419 5419 5420 5421 5422 5422 5422 5422 5423 5424 5424 5424 5424 5425 5425 5425 5425 5425 5426 5426 5425 5426 5426
5396 5404 5430 5437 5429 5430 5436 5436 5434 5431 5429 5426 5424 5421 5420 5419 5417 5416 5415 5414 5413 5412 5412 5413 5414 5415 5415 5415 5415 5416 5416 5416 5416 5416 5417 5417 5417 5417 5417 5417 5417 5416 5416 5416
5415 5432 5435 5428 5429 5430 5426 5426 5426 5424 5423 5420 5417 5415 5414 5412 5410 5409 5408 5407 5406 5405 5405 5405 5406 5407 5407 5408 5408 5408 5407 5407 5407 5408 5408 5409 5408 5408 5407 5407 5407 5407 5406 5406
5408 5424 5426 5424 5423 5423 5421 5421 5421 5419 5416 5414 5410 5408 5406 5404 5404 5402 5401 5400 5399 5398 5397 5398 5398 5399 5399 5399 5400 5400 5399 5398 5398 5398 5398 5399 5399 5399 5398 5398 5398 5398 5398 5398
5408 5419 5419 5424 5422 5421 5419 5416 5414 5412 5409 5407 5404 5401 5399 5397 5396 5395 5394 5393 5391 5390 5390 5390 5390 5391 5391 5391 5392 5391 5390 5389 5389 5389 5389 5389 5389 5388 5389 5389 5389 5390 5390 5389
5424 5426 5420 5425 5424 5419 5414 5412 5410 5407 5404 5401 5398 5395 5393 5391 5390 5388 5386 5385 5384 5384 5383 5382 5382 5382 5383 5383 5383 5382 5382 5380 5379 5379 5379 5379 5379 5379 5380 5380 5381 5381 5381 5381
5425 5423 5419 5421 5418 5415 5411 5408 5405 5401 5398 5395 5391 5388 5386 5383 5382 5381 5380 5379 5378 5377 5376 5375 5375 5374 5375 5375 5374 5374 5373 5372 5371 5370 5370 5370 5370 5370 5370 5371 5371 5371 5371 5371
5418 5415 5415 5415 5412 5409 5405 5402 5398 5394 5391 5387 5384 5381 5378 5376 5375 5374 5373 5372 5371 5370 5369 5368 5367 5367 5367 5367 5366 5365 5364 5364 5363 5361 5361 5360 5360 5360 5361 5361 5360 5359 5360 5360
5413 5411 5411 5410 5405 5401 5397 5393 5389 5386 5383 5380 5376 5373 5371 5369 5367 5366 5365 5364 5363 5362 5361 5361 5360 5360 5360 5359 5359 5357 5356 5355 5354 5353 5352 5352 5351 5351 5351 5350 5349 5348 5348 5348
5410 5405 5402 5400 5398 5394 5390 5387 5384 5381 5377 5373 5369 5366 5364 5362 5360 5358 5356 5356 5355 5354 5353 5353 5353 5353 5352 5351 5350 5349 5348 5348 5346 5345 5343 5343 5342 5342 5341 5340 5339 5338 5337 5337
5403 5400 5397 5395 5393 5390 5386 5383 5379 5376 5370 5366 5363 5359 5356 5353 5352 5350 5349 5348 5347 5346 5345 5345 5345 5345 5344 5343 5342 5341 5340 5339 5338 5337 5335 5334 5333 5332 5331 5330 5329 5328 5327 5327
5404 5402 5399 5395 5390 5385 5381 5376 5372 5368 5364 5360 5356 5352 5349 5346 5345 5343 5342 5340 5339 5338 5338 5338 5338 5337 5336 5335 5334 5333 5332 5330 5329 5328 5327 5326 5325 5324 5322 5321 5319 5318 5318 5317
5397 5394 5391 5388 5383 5378 5374 5369 5365 5361 5356 5352 5348 5345 5342 5340 5338 5336 5333 5332 5331 5331 5331 5331 5331 5330 5329 5327 5326 5324 5323 5322 5321 5320 5318 5318 5316 5315 5313 5312 5311 5309 5309 5309
5389 5386 5382 5379 5375 5370 5366 5362 5357 5352 5349 5345 5341 5338 5335 5333 5330 5328 5326 5325 5325 5324 5324 5323 5323 5322 5321 5319 5318 5316 5315 5314 5312 5311 5310 5308 5307 5306 5304 5303 5302 5301 5300 5299
5380 5377 5374 5370 5366 5362 5358 5354 5349 5345 5342 5338 5335 5332 5329 5326 5323 5321 5319 5319 5319 5318 5317 5318 5316 5315 5313 5312 5311 5309 5307 5306 5304 5303 5301 5300 5298 5297 5296 5295 5294 5293 5292 5291
5371 5368 5365 5361 5357 5352 5349 5345 5341 5338 5334 5331 5328 5325 5322 5319 5316 5315 5314 5313 5313 5313 5311 5310 5309 5309 5307 5306 5304 5302 5300 5298 5296 5294 5292 5291 5289 5288 5287 5286 5285 5284 5283 5282
5362 5359 5356 5352 5347 5343 5339 5335 5333 5330 5327 5324 5321 5319 5316 5314 5312 5309 5309 5308 5306 5306 5305 5303 5303 5303 5302 5299 5296 5294 5292 5290 5288 5286 5284 5282 5281 5280 5279 5277 5276 5275 5275 5274
5353 5350 5346 5341 5337 5333 5330 5328 5325 5322 5320 5317 5315 5313 5310 5307 5305 5304 5303 5302 5300 5299 5297 5296 5296 5296 5294 5290 5287 5285 5283 5281 5279 5278 5276 5274 5273 5271 5270 5269 5268 5267 5266 5266
5343 5339 5335 5332 5329 5327 5324 5320 5317 5314 5312 5310 5308 5306 5304 5302 5299 5297 5295 5294 5293 5292 5289 5289 5288 5287 5284 5281 5279 5277 5275 5273 5271 5269 5268 5266 5265 5263 5262 5261 5260 5260 5259 5259
5334 5331 5328 5326 5323 5320 5317 5314 5311 5308 5306 5304 5302 5300 5298 5295 5293 5290 5288 5287 5285 5284 5282 5280 5279 5278 5275 5273 5270 5268 5266 5265 5263 5261 5259 5258 5257 5255 5254 5254 5253 5253 5253 5253
5324 5321 5318 5316 5314 5312 5310 5308 5305 5303 5300 5298 5296 5293 5291 5288 5285 5283 5281 5279 5277 5275 5273 5272 5270 5269 5266 5264 5262 5260 5258 5257 5255 5253 5252 5250 5249 5248 5247 5247 5247 5247 5247 5247